When you browse on this site, cookies collect data to enhance your experience and personalize the content and advertising you see.
Visit our Privacy Policy to learn more. By continuing to use the site, you agree to this use of cookies and data.
  • En España
  • Lista de países
  • Para 7 días
  • Temperatura del agua
  • El tiempo en el mapa
  • Informadores
  • user-avatar
    Iniciar sesión

    Tiempo cada hora Lubumbashi

    Hoy, 22 Octubre, Martes

    Tiempo Temperatura Precipitaciones Viento Presión Humedad
    00:00 +33°C° 0 mm 3 mps 718 mmHg 50%
    01:00 +32°C° 0 mm 4 mps 717 mmHg 55%
    02:00 +30°C° 0 mm 5 mps 717 mmHg 58%
    03:00 +30°C° 0 mm 5 mps 717 mmHg 60%
    04:00 +30°C° 0 mm 4 mps 717 mmHg 63%
    05:00 +29°C° 0 mm 4 mps 717 mmHg 65%
    06:00 +29°C° 0 mm 3 mps 718 mmHg 64%
    07:00 +29°C° 0 mm 2 mps 719 mmHg 64%
    08:00 +30°C° 0 mm 2 mps 719 mmHg 64%
    09:00 +30°C° 1.5 mm 2 mps 719 mmHg 63%
    10:00 +30°C° 1.5 mm 3 mps 719 mmHg 62%
    11:00 +30°C° 1.5 mm 3 mps 719 mmHg 61%
    12:00 +31°C° 0.1 mm 3 mps 718 mmHg 57%
    13:00 +32°C° 0.1 mm 2 mps 718 mmHg 54%
    14:00 +34°C° 0.1 mm 2 mps 717 mmHg 51%
    15:00 +32°C° 0 mm 2 mps 717 mmHg 51%
    16:00 +32°C° 0 mm 2 mps 717 mmHg 51%
    17:00 +32°C° 0 mm 2 mps 716 mmHg 50%
    18:00 +32°C° 0 mm 2 mps 717 mmHg 52%
    19:00 +33°C° 0 mm 3 mps 717 mmHg 53%
    20:00 +31°C° 0 mm 3 mps 718 mmHg 54%
    21:00 +31°C° 0 mm 3 mps 718 mmHg 57%
    22:00 +30°C° 0 mm 3 mps 718 mmHg 61%
    23:00 +29°C° 0 mm 3 mps 718 mmHg 64%

    Mañana, 23 Octubre, Miércoles

    Tiempo Temperatura Precipitaciones Viento Presión Humedad
    00:00 +29°C° 0 mm 3 mps 718 mmHg 64%
    01:00 +28°C° 0 mm 3 mps 718 mmHg 64%
    02:00 +28°C° 0 mm 3 mps 717 mmHg 64%
    03:00 +28°C° 0 mm 3 mps 717 mmHg 64%
    04:00 +28°C° 0 mm 3 mps 718 mmHg 64%
    05:00 +28°C° 0 mm 3 mps 718 mmHg 64%
    06:00 +28°C° 0 mm 2 mps 718 mmHg 64%
    07:00 +28°C° 0 mm 2 mps 719 mmHg 63%
    08:00 +29°C° 0 mm 2 mps 719 mmHg 63%
    09:00 +30°C° 0 mm 2 mps 719 mmHg 57%
    10:00 +32°C° 0 mm 1 mps 719 mmHg 51%
    11:00 +33°C° 0 mm 1 mps 719 mmHg 46%
    12:00 +34°C° 0 mm 1 mps 718 mmHg 42%
    13:00 +35°C° 0 mm 1 mps 717 mmHg 39%
    14:00 +36°C° 0 mm 1 mps 717 mmHg 36%
    15:00 +36°C° 0 mm 1 mps 717 mmHg 35%
    16:00 +37°C° 0 mm 2 mps 716 mmHg 34%
    17:00 +37°C° 0 mm 2 mps 716 mmHg 34%
    18:00 +37°C° 0 mm 2 mps 716 mmHg 35%
    19:00 +36°C° 0 mm 2 mps 717 mmHg 36%
    20:00 +36°C° 0 mm 2 mps 717 mmHg 38%
    21:00 +35°C° 0.2 mm 2 mps 717 mmHg 42%
    22:00 +34°C° 0.2 mm 3 mps 717 mmHg 47%
    23:00 +33°C° 0.2 mm 4 mps 718 mmHg 51%

    Pasado mañana, 24 Octubre, Jueves

    Tiempo Temperatura Precipitaciones Viento Presión Humedad
    00:00 +31°C° 0 mm 3 mps 718 mmHg 53%
    01:00 +31°C° 0 mm 3 mps 718 mmHg 56%
    02:00 +31°C° 0 mm 3 mps 718 mmHg 58%
    03:00 +30°C° 0 mm 3 mps 718 mmHg 60%
    04:00 +30°C° 0 mm 3 mps 718 mmHg 62%
    05:00 +29°C° 0 mm 3 mps 717 mmHg 64%
    06:00 +30°C° 0 mm 2 mps 718 mmHg 63%
    07:00 +30°C° 0 mm 2 mps 719 mmHg 62%
    08:00 +30°C° 0 mm 2 mps 719 mmHg 62%
    09:00 +32°C° 0 mm 1 mps 719 mmHg 56%
    10:00 +33°C° 0 mm 1 mps 719 mmHg 51%
    11:00 +32°C° 0 mm 0 mps 719 mmHg 45%
    12:00 +35°C° 0 mm 1 mps 719 mmHg 41%
    13:00 +37°C° 0 mm 2 mps 718 mmHg 36%
    14:00 +38°C° 0 mm 2 mps 717 mmHg 31%
    15:00 +38°C° 0 mm 3 mps 717 mmHg 30%
    16:00 +38°C° 0 mm 3 mps 716 mmHg 29%
    17:00 +39°C° 0 mm 3 mps 716 mmHg 28%
    18:00 +38°C° 0 mm 3 mps 716 mmHg 28%
    19:00 +37°C° 0 mm 2 mps 717 mmHg 28%
    20:00 +37°C° 0 mm 2 mps 718 mmHg 29%
    21:00 +36°C° 0 mm 3 mps 718 mmHg 33%
    22:00 +35°C° 0 mm 3 mps 718 mmHg 37%
    23:00 +34°C° 0 mm 4 mps 718 mmHg 41%

    25 Octubre, Viernes

    Tiempo Temperatura Precipitaciones Viento Presión Humedad
    00:00 +33°C° 0 mm 3 mps 718 mmHg 46%
    01:00 +32°C° 0 mm 2 mps 718 mmHg 50%
    02:00 +31°C° 0 mm 2 mps 718 mmHg 55%
    03:00 +31°C° 0 mm 1 mps 718 mmHg 57%
    04:00 +30°C° 0 mm 1 mps 718 mmHg 59%
    05:00 +30°C° 0 mm 1 mps 718 mmHg 61%
    06:00 +30°C° 0 mm 1 mps 719 mmHg 60%
    07:00 +31°C° 0 mm 1 mps 719 mmHg 58%
    08:00 +29°C° 0 mm 0 mps 720 mmHg 57%
    09:00 +32°C° 0 mm 1 mps 720 mmHg 52%
    10:00 +33°C° 0 mm 1 mps 720 mmHg 46%
    11:00 +35°C° 0 mm 2 mps 719 mmHg 41%
    12:00 +36°C° 0 mm 2 mps 719 mmHg 39%
    13:00 +37°C° 0 mm 2 mps 718 mmHg 36%
    14:00 +38°C° 0 mm 2 mps 717 mmHg 34%
    15:00 +38°C° 0 mm 3 mps 717 mmHg 33%
    16:00 +38°C° 0 mm 3 mps 717 mmHg 33%
    17:00 +38°C° 0 mm 3 mps 717 mmHg 32%
    18:00 +37°C° 0 mm 3 mps 717 mmHg 33%
    19:00 +37°C° 0 mm 3 mps 718 mmHg 34%
    20:00 +36°C° 0 mm 3 mps 718 mmHg 35%
    21:00 +36°C° 0.1 mm 3 mps 718 mmHg 35%
    22:00 +36°C° 0.1 mm 3 mps 718 mmHg 35%
    23:00 +35°C° 0.1 mm 2 mps 719 mmHg 35%

    26 Octubre, Sábado

    Tiempo Temperatura Precipitaciones Viento Presión Humedad
    00:00 +34°C° 0 mm 2 mps 718 mmHg 39%
    01:00 +32°C° 0 mm 2 mps 718 mmHg 43%
    02:00 +32°C° 0 mm 1 mps 718 mmHg 46%
    03:00 +31°C° 0 mm 1 mps 718 mmHg 49%
    04:00 +31°C° 0 mm 1 mps 718 mmHg 51%
    05:00 +30°C° 0 mm 1 mps 718 mmHg 54%
    06:00 +31°C° 0 mm 1 mps 719 mmHg 50%
    07:00 +31°C° 0 mm 1 mps 720 mmHg 47%
    08:00 +32°C° 0 mm 1 mps 720 mmHg 43%
    09:00 +34°C° 0 mm 3 mps 720 mmHg 35%
    10:00 +35°C° 0 mm 4 mps 720 mmHg 27%
    11:00 +36°C° 0 mm 5 mps 720 mmHg 18%
    12:00 +38°C° 0 mm 6 mps 719 mmHg 17%
    13:00 +38°C° 0 mm 6 mps 718 mmHg 16%
    14:00 +39°C° 0 mm 6 mps 717 mmHg 15%
    15:00 +39°C° 0 mm 6 mps 717 mmHg 15%
    16:00 +39°C° 0 mm 5 mps 717 mmHg 16%
    17:00 +37°C° 0 mm 5 mps 717 mmHg 16%
    18:00 +37°C° 0 mm 4 mps 717 mmHg 17%
    19:00 +36°C° 0 mm 4 mps 718 mmHg 18%
    20:00 +35°C° 0 mm 3 mps 718 mmHg 19%
    21:00 +34°C° 0 mm 3 mps 718 mmHg 20%
    22:00 +33°C° 0 mm 3 mps 718 mmHg 20%
    23:00 +33°C° 0 mm 3 mps 718 mmHg 21%

    27 Octubre, Domingo

    Tiempo Temperatura Precipitaciones Viento Presión Humedad
    00:00 +32°C° 0 mm 4 mps 718 mmHg 21%
    01:00 +32°C° 0 mm 4 mps 718 mmHg 21%
    02:00 +30°C° 0 mm 4 mps 718 mmHg 22%
    03:00 +29°C° 0 mm 5 mps 718 mmHg 22%
    04:00 +29°C° 0 mm 5 mps 718 mmHg 23%
    05:00 +28°C° 0 mm 5 mps 718 mmHg 23%
    06:00 +29°C° 0 mm 6 mps 718 mmHg 22%
    07:00 +29°C° 0 mm 7 mps 719 mmHg 21%
    08:00 +30°C° 0 mm 7 mps 719 mmHg 20%
    09:00 +32°C° 0 mm 7 mps 719 mmHg 19%
    10:00 +34°C° 0 mm 7 mps 719 mmHg 17%
    11:00 +35°C° 0 mm 7 mps 719 mmHg 15%
    12:00 +36°C° 0 mm 7 mps 718 mmHg 15%
    13:00 +36°C° 0 mm 7 mps 718 mmHg 14%
    14:00 +38°C° 0 mm 7 mps 717 mmHg 14%
    15:00 +38°C° 0 mm 6 mps 717 mmHg 14%
    16:00 +36°C° 0 mm 5 mps 717 mmHg 15%
    17:00 +36°C° 0 mm 5 mps 716 mmHg 15%
    18:00 +35°C° 0 mm 4 mps 717 mmHg 16%
    19:00 +34°C° 0 mm 4 mps 717 mmHg 17%
    20:00 +33°C° 0 mm 3 mps 717 mmHg 19%
    21:00 +31°C° 0 mm 3 mps 718 mmHg 19%
    22:00 +31°C° 0 mm 3 mps 718 mmHg 19%
    23:00 +30°C° 0 mm 4 mps 718 mmHg 20%

    28 Octubre, Lunes

    Tiempo Temperatura Precipitaciones Viento Presión Humedad
    00:00 +30°C° 0 mm 4 mps 718 mmHg 20%
    01:00 +29°C° 0 mm 4 mps 717 mmHg 21%
    02:00 +28°C° 0 mm 4 mps 717 mmHg 21%
    03:00 +28°C° 0 mm 4 mps 717 mmHg 22%
    04:00 +27°C° 0 mm 4 mps 717 mmHg 23%
    05:00 +27°C° 0 mm 4 mps 717 mmHg 24%
    06:00 +28°C° 0 mm 4 mps 718 mmHg 23%
    07:00 +28°C° 0 mm 5 mps 718 mmHg 23%
    08:00 +29°C° 0 mm 6 mps 719 mmHg 23%
    09:00 +32°C° 0 mm 6 mps 719 mmHg 21%
    10:00 +33°C° 0 mm 6 mps 719 mmHg 19%
    11:00 +35°C° 0 mm 6 mps 719 mmHg 17%
    12:00 +35°C° 0 mm 5 mps 718 mmHg 16%
    13:00 +36°C° 0 mm 4 mps 717 mmHg 15%
    14:00 +37°C° 0 mm 3 mps 716 mmHg 14%
    15:00 +37°C° 0 mm 3 mps 716 mmHg 14%
    16:00 +36°C° 0 mm 3 mps 716 mmHg 14%
    17:00 +36°C° 0 mm 2 mps 716 mmHg 15%
    18:00 +35°C° 0 mm 3 mps 717 mmHg 16%
    19:00 +34°C° 0 mm 3 mps 717 mmHg 17%
    20:00 +34°C° 0 mm 3 mps 717 mmHg 18%
    21:00 +33°C° 0 mm 3 mps 717 mmHg 19%
    22:00 +33°C° 0 mm 3 mps 718 mmHg 19%
    23:00 +31°C° 0 mm 3 mps 718 mmHg 20%
    Mostrar más